TimePST,TemperatureF,Dew PointF,Humidity,Sea Level PressureIn,VisibilityMPH,Wind Direction,Wind SpeedMPH,Gust SpeedMPH,PrecipitationIn,Events,Conditions,WindDirDegrees,DateUTC
12:53 AM,39.0,33.1,79,29.81,10.0,WSW,4.6,-,N/A,,Partly Cloudy,250,2012-12-03 08:53:00
1:53 AM,34.0,30.9,89,29.84,10.0,South,6.9,-,N/A,,Clear,180,2012-12-03 09:53:00
2:53 AM,36.0,32.0,86,29.86,10.0,SW,10.4,-,N/A,,Clear,230,2012-12-03 10:53:00
3:53 AM,32.0,30.0,92,29.87,10.0,South,6.9,-,N/A,,Clear,180,2012-12-03 11:53:00
4:53 AM,34.0,32.0,92,29.89,10.0,SW,10.4,-,N/A,,Clear,220,2012-12-03 12:53:00
5:53 AM,35.1,32.0,89,29.89,10.0,South,11.5,-,N/A,,Clear,190,2012-12-03 13:53:00
7:53 AM,37.9,34.0,86,29.94,10.0,SW,12.7,-,N/A,,Clear,220,2012-12-03 15:53:00
8:53 AM,42.1,35.1,76,29.96,10.0,SW,11.5,-,N/A,,Clear,220,2012-12-03 16:53:00
9:53 AM,44.1,36.0,73,29.99,10.0,SW,12.7,-,N/A,,Clear,220,2012-12-03 17:53:00
10:53 AM,46.9,37.0,68,29.99,10.0,SSW,12.7,-,N/A,,Overcast,210,2012-12-03 18:53:00
11:53 AM,48.0,37.9,68,29.99,10.0,SSW,12.7,-,N/A,,Mostly Cloudy,210,2012-12-03 19:53:00
12:53 PM,48.9,37.9,66,30.00,10.0,SSW,11.5,-,N/A,,Overcast,200,2012-12-03 20:53:00
1:53 PM,48.9,37.0,64,30.01,10.0,SW,11.5,-,N/A,,Mostly Cloudy,220,2012-12-03 21:53:00
2:53 PM,48.0,37.0,66,30.01,10.0,SW,10.4,-,N/A,,Partly Cloudy,230,2012-12-03 22:53:00
3:53 PM,46.0,37.0,71,30.02,10.0,SSW,6.9,-,N/A,,Mostly Cloudy,210,2012-12-03 23:53:00
4:53 PM,43.0,37.0,80,30.02,10.0,South,5.8,-,N/A,,Overcast,190,2012-12-04 00:53:00
5:53 PM,44.1,37.9,79,30.01,10.0,South,8.1,-,N/A,,Scattered Clouds,170,2012-12-04 01:53:00
6:53 PM,43.0,37.9,82,30.01,10.0,South,3.5,-,N/A,,Overcast,190,2012-12-04 02:53:00
7:53 PM,43.0,39.9,89,29.99,10.0,Calm,Calm,-,0.00,,Overcast,0,2012-12-04 03:53:00
8:53 PM,42.1,39.0,89,29.97,10.0,Calm,Calm,-,0.00,,Overcast,0,2012-12-04 04:53:00
9:53 PM,42.1,39.0,89,29.93,10.0,North,5.8,-,0.01,,Mostly Cloudy,10,2012-12-04 05:53:00
10:53 PM,39.9,37.9,93,29.88,10.0,North,6.9,-,N/A,,Clear,10,2012-12-04 06:53:00
11:53 PM,42.1,37.0,82,29.84,10.0,Variable,3.5,-,N/A,,Mostly Cloudy,0,2012-12-04 07:53:00